Location: Briis
(48.6240°N, 2.1211°E)
Time: 01:32:46
(UTC+00:00)

Cosmos 2278 - Pass Details

Date: 25 September 2020
Orbit: 841 x 852 km, 71.1° (Epoch: 23 October)

Event Time Altitude Azimuth Distance (km) Brightness Sun altitude
Exits shadow 02:10:25 53° 48° (NE) 1,039 4.3 -32.8°
Drops below altitude 10° 02:14:48 10° 31° (NNE) 2,487 6.9 -32.3°
Sets 02:17:16 0° 30° (NNE) 3,425 7.9 -32.0°
